星链-33576 (STARLINK-33576)

导读

STARLINK-33576是美国于2025年1月21日发射的星链卫星,归属于SpaceX星链星座项目,该项目旨在搭建全球卫星互联网,为地面偏远地区等场景提供宽带网络接入服务。星链系统通过大规模低轨卫星组网,持续补充发射卫星扩展星座覆盖与服务能力,该星加入后将进一步完善星座的通信服务能力。

基本信息
目录编号:
62775
目录名称:
STARLINK-33576
国际标识:
2025-015T
轨道中心:
EARTH
卫星名称:
星链-33576
卫星全名:
星链-33576 (STARLINK-33576)
卫星状态:
在轨 (已飞行592 天)
发射日期:
2025-01-21 UTC
国别 :
美国 (US)
星等 :
--
轨道信息
数据来源 国际轨道数据
星历时间: 2026-09-04T22:12:16+0800
20小时前
查看轨道信息
半长轴: 6840.848km
偏心率: 0.0001778
轨道倾角: 53.156°
近地点辐角 86.598°
升交点赤经 207.806°
平近点角 273.523°
近地点: 461.494km
远地点: 463.928km
周期: 93.848分钟
每日圈数: 15.343976
详细信息
固有亮度:
5
最大亮度:
2.5
卫星平台:
Starlink V1.0
覆盖范围:
全球
运营商:
太空探索技术公司
运营商所在国:
美国
制造商(研发单位):
太空探索技术公司
制造商所在国:
美国
使用方式:
暂无
卫星简介
Starlink 计划是 SpaceX 推出的全球卫星互联网项目,通过发射低轨道卫星,为全球尤其是偏远地区提供高速、低延迟的互联网服务。自 2019 年起,Starlink 已部署数千颗卫星,旨在缩小全球数字鸿沟,推动互联网普及。该项目还为军事、航空等行业提供通信支持,带来广泛经济效益。
2D轨道图
3D轨道图
轨道高度分析图
轨道倾角分析图
轨道综合分析图
查看轨道综合分析图
交会数据列表
事件ID 空间交会对象 最接近时刻(TCA) 交会距离 交会风险概率(CRP) 交会风险指数(CRI) 操作
CDM_260905-122306-277506-915821
2026-09-05T
12:23:06+0000
0.259 km
中距离
4.487333E-4 高风险 0.88
CDM_260906-075506-277506-915821
2026-09-06T
07:55:29+0000
0.854 km
远距离
2.677434E-5 中风险 0.64
CDM_260906-062106-277506-915821
2026-09-06T
06:21:42+0000
0.961 km
远距离
1.800464E-5 中风险 0.6
CDM_260905-104906-277506-915821
2026-09-05T
10:49:19+0000
1.336 km
极远距离
5.796303E-6 低风险 0.5
CDM_260905-135606-277506-915821
2026-09-05T
13:56:54+0000
1.768 km
极远距离
2.431987E-6 低风险 0.43
CDM_260906-092906-277506-915821
2026-09-06T
09:29:16+0000
2.305 km
极远距离
1.290189E-6 低风险 0.37
CDM_260906-190905-246906-277521
2026-09-06T
19:09:49+0000
2.804 km
极远距离
1.205547E-6 低风险 0.37
CDM_260906-044706-277506-915821
2026-09-06T
04:47:54+0000
2.426 km
极远距离
1.172427E-6 低风险 0.36
CDM_260905-030005-370806-277521
2026-09-05T
03:00:01+0000
2.567 km
极远距离
1.092801E-6 低风险 0.36
CDM_260905-091506-277506-915821
2026-09-05T
09:15:31+0000
2.876 km
极远距离
9.090094E-7 极低风险 0.34